• Join FlightAware (Why Join?)
  • Login
  • US Flag 
11:43AM EDT


 

Airport Tracker/Info


-or-


 

Live Flight TrackerFlight Track Log ✈ SWA2182 ✈ 18-Apr-2013 ✈ KSMF - KSAN

Flight Track Log - Related Links

Times and Time Zones

All times are in EDT time to prevent confusion due to time zone crossing. See the SWA2182 flight status page for this flight to view local times or setup timezone preferences in your user account.

Time Position Orientation Groundspeed Altitude Reporting Facility
EDT Latitude Longitude Course Direction KTS MPH feet Rate Location/Type
09:12AM 38.7333 -121.5833 142° Southeast 186 214 2,400  Level Northern Cal TRACON
09:13AM 38.6833 -121.5333 142° Southeast 231 266 5,300 3,540 Climbing Northern Cal TRACON
09:14AM 38.6333 -121.4667 134° Southeast 269 310 9,200 3,540 Climbing Northern Cal TRACON
09:15AM 38.5614 -121.3253 123° Southeast 332 382 14,400 3,300 Climbing Oakland Center
09:16AM 38.5058 -121.2139 122° Southeast 363 418 17,800 3,180 Climbing Oakland Center
09:17AM 38.1499 -120.5999 142° Southeast  Level FlightAware Approximate
09:17AM 38.4497 -121.1061 124° Southeast 382 440 20,900  Level Oakland Center
09:18AM 38.3861 -120.9811 123° Southeast 412 474 23,900 2,700 Climbing Oakland Center
09:19AM 38.3194 -120.8508 123° Southeast 437 503 26,400 2,400 Climbing Oakland Center
09:20AM 38.2486 -120.7153 124° Southeast 456 525 28,800 1,260 Climbing Oakland Center
09:21AM 38.1517 -120.6006 137° Southeast 476 548 29,000 60 Climbing Oakland Center
09:22AM 38.0461 -120.4989 143° Southeast 477 549 29,000  Level Oakland Center
09:23AM 37.9417 -120.3964 142° Southeast 474 545 29,100 1,020 Climbing Oakland Center
09:24AM 37.8325 -120.3014 145° Southeast 474 545 31,100 2,100 Climbing Oakland Center
09:25AM 37.6756 -120.2250 159° South 497 572 33,400 2,160 Climbing Oakland Center
09:26AM 37.5444 -120.1597 158° South 504 580 35,500 2,100 Climbing Oakland Center
09:27AM 37.4100 -120.0986 160° South 508 585 37,700 1,800 Climbing Oakland Center
09:28AM 37.2822 -120.0344 158° South 489 563 39,200 1,440 Climbing Oakland Center
09:29AM 37.1556 -119.9708 158° South 488 562 40,700 840 Climbing Oakland Center
09:30AM 37.0317 -119.9072 158° South 486 559 41,000 120 Climbing Oakland Center
09:31AM 36.9061 -119.8464 159° South 485 558 41,000  Level Oakland Center
09:32AM 36.7825 -119.7844 158° South 478 550 41,000  Level Oakland Center
09:33AM 36.6567 -119.7194 157° South 484 557 41,000  Level Oakland Center
09:34AM 36.5311 -119.6583 159° South 485 558 41,000  Level Oakland Center
09:35AM 36.4078 -119.5975 158° South 479 551 41,000  Level Oakland Center
09:36AM 36.2833 -119.5367 158° South 479 551 41,000  Level Oakland Center
09:37AM 36.1586 -119.4764 159° South 480 552 41,000  Level Oakland Center
09:38AM 36.0339 -119.4167 159° South 479 551 41,000  Level Oakland Center
09:39AM 35.9119 -119.3600 159° South 471 542 41,000  Level Oakland Center
09:40AM 35.7878 -119.3011 159° South 471 542 41,000  Level Oakland Center
09:41AM 35.6592 -119.2394 159° South 483 556 41,000  Level Oakland Center
09:43AM 35.5086 -119.1669 159° South 485 558 41,000  Level Los Angeles Center
09:44AM 35.3833 -119.1075 159° South 483 556 41,000  Level Los Angeles Center
09:45AM 35.2572 -119.0478 159° South 484 557 41,000  Level Los Angeles Center
09:46AM 35.1306 -118.9875 159° South 485 558 41,000  Level Los Angeles Center
09:47AM 35.0033 -118.9286 159° South 487 560 41,000  Level Los Angeles Center
09:48AM 34.8775 -118.8700 159° South 485 558 41,000  Level Los Angeles Center
09:49AM 34.7517 -118.8111 159° South 485 558 41,000  Level Los Angeles Center
09:50AM 34.6033 -118.7428 159° South 478 550 41,000  Level Los Angeles Center
09:51AM 34.4786 -118.6850 159° South 480 552 41,000  Level Los Angeles Center
09:52AM 34.3542 -118.6292 160° South 478 550 41,000  Level Los Angeles Center
09:53AM 34.2311 -118.5689 158° South 477 549 41,000  Level Los Angeles Center
09:54AM 34.1072 -118.5119 159° South 477 549 41,000 -540 Level Los Angeles Center
09:55AM 33.9814 -118.4556 160° South 480 552 39,900 -2,040 Descending Los Angeles Center
09:56AM 33.8744 -118.3544 142° Southeast 494 568 36,900 -3,420 Descending Los Angeles Center
09:57AM 33.7672 -118.2161 133° Southeast 505 581 33,000 -3,420 Descending Los Angeles Center
09:58AM 33.6739 -118.0981 134° Southeast 508 585 29,900 -3,180 Descending Los Angeles Center
09:59AM 33.5808 -117.9806 134° Southeast 492 566 26,600 -2,880 Descending Los Angeles Center
10:00AM 33.4911 -117.8678 134° Southeast 476 548 24,000 -2,400 Descending Los Angeles Center
10:01AM 33.3908 -117.7431 134° Southeast 440 506 21,700 -2,400 Descending Los Angeles Center
10:02AM 33.3114 -117.6403 133° Southeast 427 491 19,200 -2,400 Descending Los Angeles Center
10:02AM 33.2667 -117.5833 133° Southeast 416 479 18,100 -2,340 Descending Southern California TRACON
10:03AM 33.1833 -117.5167 146° Southeast 416 479 16,000 -2,340 Descending Southern California TRACON
10:04AM 33.0833 -117.4333 145° Southeast 376 433 13,500 -2,220 Descending Southern California TRACON
10:05AM 33.0511 -117.3986 138° Southeast 383 441 12,300 -2,580 Descending Los Angeles Center
10:05AM 33.0167 -117.3667 142° Southeast 360 414 11,200 -1,800 Descending Southern California TRACON
10:06AM 32.9333 -117.3167 153° Southeast 331 381 10,000 -1,320 Descending Southern California TRACON
10:07AM 32.8667 -117.2500 140° Southeast 308 354 8,600 -1,200 Descending Southern California TRACON
10:08AM 32.8261 -117.2192 147° Southeast 309 356 7,900 -1,260 Descending Los Angeles Center
10:09AM 32.7931 -117.1222 112° Southeast 283 326 6,400 -1,140 Descending Los Angeles Center
10:10AM 32.7833 -117.0833 107° East 247 284 6,300 -900 Descending Southern California TRACON
10:11AM 32.7667 -117.0167 107° East 232 267 5,200 -1,260 Descending Southern California TRACON
10:12AM 32.7167 -116.9833 151° Southeast 245 282 3,800 -1,500 Descending Southern California TRACON
10:13AM 32.7000 -117.0500 253° West 242 278 2,300 -1,260 Descending Southern California TRACON
10:13AM 32.7167 -117.1000 292° West 176 203 1,500 -780 Descending Southern California TRACON
10:14AM 32.7197 -117.1278 277° West 191 220 1,000 -720 Descending Los Angeles Center
10:15AM 32.7306 -117.1703 287° West 162 186 200 -780 Descending Los Angeles Center
10:17AM 32.7333 -117.1833 287° West  Level FlightAware Approximate
10:24AM 32.7336 -117.1897 287° West  Level Estimated